Showing default

NIMBUS 4, 4362

Orbit data source: Space-Track

NIMBUS 4, 4362 is a payload satellite owned by GSFC (US) in SSO that was launched on Wed, 08 Apr 1970 UTC via a THORAD SLV-2G AGENA D launch vehicle from the Air Force Western Test Range (AFWTR). Payload-class satellites include a variety of spacecraft equipped with specific instruments for various scientific and technological missions. These include communications satellites like Starlink; space stations such as the ISS; scientific satellites like the Hubble; Earth observation satellites from companies like Planet Labs, Umbra, and HawkEye 360; GPS; miniature CubeSats for education and research; and military/defense satellites.

Loading next visibility...
Identifier
4362, 1970-025A
Orbit
SSO
Country
Flag of USUS
Related business
Manufacturer
GE/MSVD
Mission
Non-operational Civil Weather
Bus & Motor
NIMBUS, Unknown motor
Mass
619 kg wet, 619 kg dry
Launch date (UTC)
1970-04-08 (55 years ago)
Launch vehicle
THORAD SLV-2G AGENA D
Launch site
Air Force Western Test Range (AFWTR)
Object type
Payload
Rocket body
Debris
Shape & HBR
Cone + 2 Pan, 1.7 m
Radar Cross Section
2.947 m², Large (>1 m²)

Expand to show TLE details & history
Last TLE update: 21 hours ago

TLE from 21 hours ago
0 NIMBUS 4
1 04362U 70025A   25257.52986777 -.00000018  00000-0  46319-4 0  9998
2 04362  99.9502 176.3468 0007028 314.3399 218.9708 13.44735529719796
Epoch: 2025-09-14T12:43Z
TLE epoch observation values (Epoch: 2025-09-14T12:43:00.575Z)
Latitude
6.56586°
Longitude
172.99792°
Altitude
1,097.933 km
Speed
7.302 km/s
True Right ascension
23h 49m 59s
True Declination
6° 31' 43"
Sunlit
Object was in full shadow at epoch
Visualization orbit readout
Latitude
Unknown
Longitude
Unknown
Altitude
Unknown
Speed
Unknown
Apparent Right ascension
Unknown
Apparent Declination
Unknown
Sunlit
N/A
Visualization observer readout
Local Sidereal Time
02:47:43
Azimuth
Unknown
Elevation
Unknown
Doppler factor
Unknown
Orbital elements
Apogee altitude
1,094.26 km
Perigee altitude
1,083.764 km
Semi-major axis
7,467.149 km
Eccentricity
0.0007
Inclination
99.9502°
RAAN
176.3468°
Arg. of periapsis
314.3399°
True anomaly
218.92018°
Mean anomaly
218.9708°
Eccentric anomaly
218.94549°
Mean motion
3.36365 °/min
Orbital period
107.03 mins
BSTAR
0.000046319
Loading maneuver chart data...
Computing Atmospheric mass density...

Documentation

Showing up to 5 results
|